User: anonymous   Login
Location: Columbia
(38.9520°N, 92.3340°W)
Time: 09:00:43
(UTC-06:00)
Language:

Cosmos 2100 Rocket - Orbit

View from above orbital plane
View from above orbital plane
View from above satellite
View from above satellite

Ground track
Ground track

The orbit data is extracted from the following two-line orbital elements,

1 20805U 90083B   17346.95712867 +.00000035 +00000-0 +20906-4 0  9990
2 20805 082.9371 288.2215 0029189 253.9690 171.9877 13.75830396367717
Epoch (UTC): 12 December 2017 22:58:15
Eccentricity: 0.0029189
inclination: 82.9371°
perigee height: 957 km
apogee height: 1000 km
right ascension of ascending node: 288.2215°
argument of perigee: 253.9690°
revolutions per day: 13.75830396
mean anomaly at epoch: 171.9877°
orbit number at epoch: 36771

The dashed part of the orbit path shows where the satellite is in the earth's shadow,  

DLR